#timestamp,LO_Frequency,Hit,StdDev 
1586469615.1,286047003.6,N
1586469635.9,286047002.7,N
1586469655.7,286047000.4,N
1586469675.5,286047000.1,N
1586469695.4,286046997.1,N
1586469715.2,286046995.7,N
1586469735.0,286046995.4,N
1586469736.0,286046995.4,N
1586469755.8,286046998.0,N
1586469775.6,286046996.2,N
1586469795.5,286046994.1,N
1586469815.3,286046994.7,N
1586469835.1,286046992.0,N
1586469855.9,286046992.1,N
1586469875.7,286046990.7,N
1586469895.6,286046990.5,N
1586469915.4,286046988.9,N
1586469935.2,286046991.1,N
1586469955.1,286046990.6,N
1586469956.0,286046990.6,N
1586469975.8,286046992.2,N
1586469995.7,286046993.2,N
1586470015.5,286046990.4,N
1586470035.3,286046990.7,N
1586470055.2,286046993.1,N
1586470075.0,286046990.2,N
1586470075.9,286046990.2,N
1586470095.7,286046990.4,N
1586470115.6,286046991.5,N
1586470135.4,286046990.8,N
1586470155.3,286046992.7,N
1586470175.1,286046991.7,N
1586470195.8,286046990.5,Y
1586470215.7,286046999.1,P
1586470235.5,286046998.5,N
1586470255.4,286046999.5,N
1586470275.2,286046996.6,N
1586470295.0,286046996.5,N
1586470295.9,286046996.5,N
1586470315.8,286046998.7,N
1586470335.6,286046997.0,N
1586470355.5,286047011.9,Y
1586470375.3,286047002.2,P
1586470395.1,286047001.0,N
1586470415.9,286046998.8,N
1586470435.7,286046999.6,N
1586470455.5,286046997.7,N
1586470475.4,286046994.9,N
1586470495.2,286046995.8,N
1586470515.1,286046997.6,N
1586470516.0,286046997.6,N
1586470535.8,286046997.4,N
1586470555.6,286046997.7,N
1586470575.5,286046994.9,N
1586470595.3,286046996.9,N
1586470615.2,286046999.1,N
1586470635.9,286046997.0,N
1586470655.7,286046996.5,N
1586470675.6,286046996.7,N
1586470695.4,286046996.6,N
1586470715.2,286046997.0,N
1586470735.1,286046998.7,N
1586470736.0,286046998.7,N
1586470755.8,286046999.3,N
1586470775.7,286046998.1,N
1586470795.5,286046998.8,N
1586470815.3,286046996.5,N
1586470835.2,286046997.0,N
1586470855.0,286047001.2,N
1586470855.9,286047001.2,N
1586470875.8,286046996.5,N
1586470895.6,286046997.1,N
1586470915.4,286046997.7,N
1586470935.3,286046995.6,N
1586470955.1,286046995.4,Y
1586470975.9,286046998.8,P
1586470995.7,286047000.9,N
1586471015.5,286046998.2,N
1586471035.4,286046998.4,N
1586471055.2,286046999.0,N
1586471075.0,286046996.5,Y
1586471075.9,286046996.5,P
1586471095.8,286046997.7,N
1586471115.6,286046999.4,N
1586471135.5,286046999.8,N
1586471155.3,286047003.9,Y
1586471175.2,286047005.2,P
1586471195.9,286047003.9,N
1586471215.7,286047003.8,N
1586471235.6,286047004.2,N
1586471255.4,286047003.4,N
1586471275.3,286047004.7,N
1586471295.1,286047005.5,N
1586471326.0,286047004.4,E
1586471335.0,286047002.1,N
1586471335.9,286047002.1,P
1586471355.8,286047002.1,P
1586471375.6,286047002.8,Y
1586471395.5,286047000.8,P
1586471415.3,286046998.7,N
1586471435.1,286046996.6,N
1586471455.9,286046996.5,N
1586471475.7,286046998.8,N
1586471495.6,286046999.9,N
1586471515.4,286047001.1,N
1586471535.2,286046998.6,N
1586471555.1,286046999.6,N
1586471556.0,286046999.6,N
1586471575.8,286047000.4,N
1586471595.7,286047002.6,N
1586471615.5,286046999.7,N
1586471635.3,286046999.5,N
1586471655.2,286047001.1,N
1586471675.0,286047004.1,N
1586471675.9,286047004.1,N
1586471695.7,286047004.2,N
1586471715.6,286047004.0,N
1586471735.4,286047002.1,N
1586471755.3,286047003.1,N
1586471775.1,286047005.6,N
1586471776.0,286047005.6,N
1586471795.8,286047003.6,N
1586471815.7,286047005.3,N
1586471835.5,286047005.6,N
1586471855.3,286047001.0,N
1586471875.2,286046997.1,N
1586471895.0,286046996.6,N
1586471895.9,286046996.6,N
1586471915.8,286047000.3,N
1586471935.6,286047002.1,N
1586471955.4,286047001.8,N
1586471975.3,286046999.7,N
1586471995.1,286047011.9,Y
1586472015.9,286046996.9,P
1586472035.7,286046997.2,N
1586472055.5,286047000.7,N
1586472075.4,286046998.9,N
1586472095.2,286047002.8,N
1586472115.1,286047000.1,N
1586472116.0,286047000.1,N
1586472135.8,286047002.0,N
1586472155.6,286047004.4,N
1586472175.5,286047001.3,N
1586472195.3,286047004.2,N
1586472215.1,286047003.8,N
1586472235.9,286047003.5,N
1586472255.7,286047004.1,N
1586472275.6,286047001.2,N
1586472295.4,286046999.5,N
1586472315.2,286046998.4,N
1586472335.1,286047000.1,N
1586472336.0,286047000.1,N
1586472355.8,286047004.2,N
1586472375.7,286047006.0,N
1586472395.5,286047002.2,N
1586472415.3,286047003.5,N
1586472435.2,286047003.1,N
1586472455.0,286047003.2,N
1586472455.9,286047003.2,N
1586472475.7,286047005.0,N
1586472495.6,286047006.0,N
1586472515.4,286047004.1,N
1586472535.3,286047001.4,N
1586472555.1,286047004.0,N
1586472556.0,286047004.0,N
1586472575.8,286047004.1,N
1586472595.7,286047001.5,N
1586472615.5,286047003.3,N
1586472635.4,286047005.0,N
1586472655.2,286047007.1,Y
1586472675.0,286047003.4,P
1586472675.9,286047003.4,P
1586472695.8,286047003.0,P
1586472715.6,286047002.7,Y
1586472735.5,286046997.3,P
1586472755.3,286046997.2,N
1586472775.1,286047000.6,N
1586472795.9,286046999.7,N
1586472815.7,286047002.7,N
1586472835.5,286047000.0,N
1586472855.4,286046999.9,N
1586472875.2,286047000.1,N
1586472895.1,286046999.5,N
1586472896.0,286046999.5,N
1586472915.8,286046998.6,N
1586472935.6,286046998.3,N
1586472955.5,286046999.1,N
1586472975.3,286046998.3,N
1586472995.2,286046994.9,Y
1586473015.9,286046997.3,P
1586473035.7,286046996.8,N
1586473055.6,286047000.8,N
1586473075.4,286046998.7,N
1586473095.2,286047000.9,N
1586473115.1,286047001.0,N
1586473116.0,286047001.0,N
1586473135.8,286047002.5,N
1586473155.7,286047000.7,N
1586473175.5,286046999.8,N
1586473195.3,286047002.6,N
